Regional Weather Roundup
Issued by NWS

Home | Current Version | Previous Version | Graphics & Text | Print | Product List | Glossary Off
Versions: 1 2 3 4 5 6 7 8 9 10 11 12 13 14 15 16 17 18 19 20 21 22 23 24 25 26 27 28 29 30 31 32 33 34 35 36 37 38 39 40 41 42 43 44 45 46 47 48 49 50

000
ASUS43 KMKX 260700
RWRWI

WISCONSIN REGIONAL WEATHER ROUNDUP
NATIONAL WEATHER SERVICE MILWAUKEE/SULLIVAN WI
200 AM CDT TUE JUL 26 2016

NOTE: "FAIR" INDICATES FEW OR NO CLOUDS BELOW 12,000 FEET WITH NO
SIGNIFICANT WEATHER AND/OR OBSTRUCTIONS TO VISIBILITY.

WIZ001-002-006>008-014>016-023>028-260800-
NORTHWEST WISCONSIN

CITY           SKY/WX    TMP DP  RH WIND       PRES   REMARKS
SUPERIOR ARPT  CLEAR     68  65  89 SW7       29.99R
ASHLAND        CLEAR     68  63  84 SW6       30.00S
HAYWARD        CLEAR     62  60  93 CALM      30.04S
SIREN          CLEAR     70  64  83 SW3       30.03F
CUMBERLAND     CLEAR     63  61  94 CALM      30.05S
RICE LAKE      FOG       64  63  95 CALM      30.06S VSB 1/2
CHETEK         CLEAR     65  64  99 CALM      30.05S
LADYSMITH      CLEAR     64  62  94 CALM      30.07R
EAU CLAIRE     NOT AVBL
MENOMONIE      CLEAR     66  61  83 CALM      30.05S
NEW RICHMOND   CLEAR     65  65  97 S3        30.05S
OSCEOLA        CLEAR     65  65 100 CALM      30.06F
$$

WIZ003>005-009-010-017-018-260800-
NORTH CENTRAL WISCONSIN

CITY           SKY/WX    TMP DP  RH WIND       PRES   REMARKS
MANITOWISH WTR CLEAR     61  61 100 CALM      30.05S
ARBOR VITAE    CLEAR     62  60  92 CALM      30.05F
WOODRUFF       CLEAR     62  60  92 CALM      30.05F
RHINELANDER    CLEAR     63  61  93 W5        30.06F
EAGLE RIVER    CLEAR     62  61  97 CALM      30.05S
LAND O LAKES   CLEAR     55  55  99 CALM      30.06S
PHILLIPS       CLEAR     61  61 100 CALM      30.05S
TOMAHAWK       CLEAR     58  56  94 CALM      30.06F
MEDFORD        CLEAR     57  57 100 CALM      30.07S FOG
MERRILL        CLEAR     58  58 100 CALM      30.07S
$$

WIZ029-030-035-036-043>047-260800-
CENTRAL WISCONSIN

CITY           SKY/WX    TMP DP  RH WIND       PRES   REMARKS
WAUSAU         CLEAR     65  61  87 CALM      30.05S
MOSINEE        CLEAR     61  61 100 W3        30.07S
MARSHFIELD     CLEAR     65  60  84 CALM      30.06S
STEVENS POINT  CLEAR     60  59  98 CALM      30.06S
WAUPACA        PTCLDY    67  64  91 CALM      30.05S
WAUTOMA        PTCLDY    63  61  93 CALM      30.06S
WISC RAPIDS    CLEAR     63  60  90 CALM      30.07S FOG
CAMP DOUGLAS   FOG       57  57 100 CALM      30.06S VSB 3/4
$$

WIZ011>013-019>022-031-037>040-048>050-260800-
NORTHEAST WISCONSIN

CITY           SKY/WX    TMP DP  RH WIND       PRES   REMARKS
ANTIGO         CLEAR     59  58  97 CALM      30.07F
SHAWANO        CLEAR     63  60  90 CALM      30.04S
OCONTO         CLEAR    N/A N/A N/A CALM      30.01S
STURGEON BAY   CLEAR     66  64  93 CALM      30.02F
GREEN BAY      PTCLDY    65  65 100 W7        30.02S
MANITOWOC      NOT AVBL
APPLETON       CLEAR     66  59  77 W9        30.03S
CLINTONVILLE   PTCLDY    64  61  88 NW3       30.04S
OSHKOSH        CLEAR     68  61  78 W5        30.03S
$$

WIZ032>034-041-042-053>061-260800-
SOUTHWEST WISCONSIN

CITY           SKY/WX    TMP DP  RH WIND       PRES   REMARKS
LA CROSSE      PTCLDY    69  66  90 SE5       30.05S
SPARTA         CLEAR     59  59  99 CALM      30.07S
VIROQUA        PTCLDY    64  64 100 CALM      30.08S
BOSCOBEL       FOG       63  62  97 CALM      30.06S VSB 3/4
PRAIRIE DU CHI CLEAR     65  63  92 CALM      30.06S
PLATTEVILLE    CLEAR     66  66  97 N5        30.07S
$$

WIZ056-057-062-063-064-067-068-260800-
SOUTH CENTRAL WISCONSIN

CITY           SKY/WX    TMP DP  RH WIND       PRES   REMARKS
REEDSBURG      CLEAR     64  64 100 CALM      30.06S FOG
BARABOO/DELLS  CLEAR     63  61  92 CALM      30.06F
LONE ROCK      PTCLDY    64  63  96 CALM      30.06S FOG
MINERAL POINT  CLEAR     68  64  88 CALM      30.07S
MADISON        PTCLDY    66  64  93 CALM      30.04F
MIDDLETON      PTCLDY    65  65 100 CALM      30.06S
WATERTOWN      CLEAR     64  64 100 CALM      30.04S
MONROE         CLEAR     70  63  78 N6        30.06S
JANESVILLE     PTCLDY    68  66  94 CALM      30.04F FOG
$$

WIZ051-052-058>065-066-070>072-260800-
SOUTHEAST WISCONSIN

CITY           SKY/WX    TMP DP  RH WIND       PRES   REMARKS
MILWAUKEE      CLEAR     70  63  78 NW3       30.03S
WAUKESHA       CLEAR     64  63  94 CALM      30.05F
MILWAUKEE/TIMM CLEAR     70  59  68 CALM      30.04S
RACINE         CLEAR     69  63  81 W3        30.05S
BURLINGTON     CLEAR     63  62  99 CALM      30.04S FOG
KENOSHA        PTCLDY    66  62  87 CALM      30.04S
FOND DU LAC    CLEAR     64  60  87 CALM      30.04S
SHEBOYGAN      CLEAR     66  62  87 NW5       30.03S
WEST BEND      CLEAR     63  61  94 CALM      30.04S
JUNEAU         CLEAR     64  63  96 CALM      30.06S
$$

LSZ147-162-260800-
LAKE SUPERIOR

STATION/POSITION TIME  TEMP    WIND        PRES    WAVE
                       AIR SEA DIR/SP/G            HT/PER
                 (UTC) (F)     (DEG/KT/KT) (MB)    (FT/S)
W MID LAKE BUOY  0550   64 60  220/  6/  8 1013.7S   1
DEVILS ISLAND    0600   68     230/ 10/ 11 1014.7R
SAXON HARBOR     0600   71     190/  9/ 11 1015.2
$$

LMZ867-665-643>646-260800-
LAKE MICHIGAN

STATION/POSITION TIME  TEMP    WIND        PRES    WAVE
                       AIR SEA DIR/SP/G            HT/PER
                 (UTC) (F)     (DEG/KT/KT) (MB)    (FT/S)
CHAMBERS ISLAND  0600   65      CALM  /  2 1015.9S
S GREEN BAY BUOY 0630   72 74  300/  6/  8   N/A
N MID LAKE BUOY  0550   70 70  170/  4/  6 1015.2R   1
NORTHPORT PIER   0600   68      CALM  /  2 1015.9R
SISTER BAY       0621   69        CALM       N/A
ALGOMA LAKESHORE 0613          320/  6/  7   N/A
KEWAUNEE LAKESHO 0600   68     300/  4/  5 1015.7R
SHEBOYGAN LAKESH 0600   74     280/  8/ 10 1016.5R
PORT WASHINGTON  0600   73     290/  6/  8 1017.3
ATWATER BUOY     0600   65 57  270/  2/  2 1018.4R
MILWAUKEE LAKESH 0610   67     280/  1/  1   N/A
S MID LAKE BUOY  0550   73 73  240/  4/  6 1016.1R   0
KENOSHA   LAKESH 0600   75     250/  5/  7 1016.6R
$$

TC  - TEMPERATURE IN CELSIUS
VSB - VISIBILITY IN STATUTE MILES
WCI - WIND CHILL INDEX
HX  - HEAT INDEX




USA.gov is the U.S. government's official web portal to all federal, state and local government web resources and services.